Change the Weather History Date:

Tuesday, November 6, 2012

  Actual Average (KMSP) Record (KMSP)
Temperature  
Mean Temperature 38 °F 39 °F  
Max Temperature 42 °F 47 °F 73 °F (1893)
Min Temperature 35 °F 31 °F 0 °F (1991)
Degree Days  
Heating Degree Days 26 26  
Month to date heating degree days 147  
Since 1 July heating degree days 827  
Cooling Degree Days 0 0  
Month to date cooling degree days 0  
Year to date cooling degree days 753  
Moisture  
Dew Point 36 °F    
Average Humidity 89    
Maximum Humidity 100    
Minimum Humidity 70    
Precipitation  
Precipitation 0.22 in 0.06 in 1.54 in (2000)
Month to date precipitation 0.36  
Year to date precipitation 28.04  
Snow  
Snow 0.00 in 0.20 in 2.90 in (1988)
Month to date snowfall 1.0  
Since 1 July snowfall 1.6  
Since 1 September snowfall 1.6  
Snow Depth -    
Sea Level Pressure  
Sea Level Pressure 29.85 in    
Wind  
Wind Speed 10 mph (West)    
Max Wind Speed 15 mph    
Max Gust Speed 25 mph    
Visibility 8 miles    
Events Rain    
T = Trace of Precipitation, MM = Missing Value Source: NWS Daily Summary

Daily Weather History Graph

Daily Weather History Graph

Search for Another Location

Airport or City:

Trip Planner

Search our weather history database for the weather conditions in past years. The results will help you decide how hot, cold, wet, or windy it might be!

Date:

Astronomy

Nov. 06, 2012 Rise Set
Actual Time 6:57 AM CST 4:50 PM CST
Civil Twilight 6:26 AM CST 5:21 PM CST
Nautical Twilight 5:51 AM CST 5:57 PM CST
Astronomical Twilight 5:16 AM CST 6:31 PM CST
Moon 11:34 PM CST (11/6) 12:47 PM CST (11/6)
Length of Visible Light 10h 55m
Length of Day
9h 53m
Waning Gibbous, 53% of the Moon is Illuminated
Nov 6
Waning Gibbous
Nov 6
Last Quarter
Nov 13
New
Nov 20
First Quarter
Nov 28
Full

Hourly Weather History & Observations

Time (CST) Temp. Windchill Dew Point Humidity Pressure Visibility Wind Dir Wind Speed Gust Speed Precip Events Conditions
12:15 AM 41.0 °F 34.7 °F 33.8 °F 76% 29.96 in 10.0 mi South 10.4 mph - N/A   Overcast
12:35 AM 41.0 °F 33.9 °F 33.8 °F 76% 29.94 in 10.0 mi South 12.7 mph - N/A   Overcast
12:55 AM 42.8 °F 36.6 °F 33.8 °F 70% 29.93 in 10.0 mi South 11.5 mph 17.3 mph N/A   Overcast
1:15 AM 41.0 °F 34.3 °F 35.6 °F 81% 29.92 in 7.0 mi South 11.5 mph 18.4 mph N/A Rain Light Rain
1:35 AM 41.0 °F 34.3 °F 35.6 °F 81% 29.92 in 5.0 mi SSW 11.5 mph 18.4 mph N/A Rain Light Rain
1:55 AM 41.0 °F 34.3 °F 37.4 °F 87% 29.91 in 5.0 mi SSW 11.5 mph 21.9 mph N/A Rain Light Rain
2:15 AM 39.2 °F 32.5 °F 37.4 °F 93% 29.91 in 5.0 mi SSW 10.4 mph - 0.01 in Rain Rain
2:35 AM 39.2 °F 31.6 °F 35.6 °F 87% 29.90 in 5.0 mi SSW 12.7 mph - 0.03 in Rain Rain
2:55 AM 37.4 °F 30.3 °F 35.6 °F 93% 29.88 in 5.0 mi SSW 10.4 mph - 0.05 in Rain Rain
3:15 AM 37.4 °F 29.8 °F 35.6 °F 93% 29.87 in 7.0 mi South 11.5 mph 16.1 mph 0.01 in Rain Light Rain
3:35 AM 37.4 °F 30.8 °F 35.6 °F 93% 29.85 in 5.0 mi South 9.2 mph - 0.02 in Rain Light Rain
3:55 AM 37.4 °F 29.8 °F 37.4 °F 100% 29.84 in 5.0 mi South 11.5 mph 16.1 mph 0.03 in Rain Light Rain
4:15 AM 37.4 °F 29.3 °F 35.6 °F 93% 29.84 in 5.0 mi South 12.7 mph 18.4 mph 0.01 in Rain Rain
4:35 AM 37.4 °F 28.5 °F 35.6 °F 93% 29.82 in 7.0 mi SSW 15.0 mph 19.6 mph 0.03 in Rain Rain
4:55 AM 37.4 °F 29.3 °F 35.6 °F 93% 29.82 in 7.0 mi South 12.7 mph - 0.05 in Rain Rain
5:15 AM 37.4 °F 30.8 °F 35.6 °F 93% 29.81 in 7.0 mi South 9.2 mph - 0.01 in Rain Light Rain
5:35 AM 37.4 °F 30.8 °F 35.6 °F 93% 29.80 in 5.0 mi South 9.2 mph - 0.03 in Rain Rain
5:55 AM 37.4 °F 30.8 °F 35.6 °F 93% 29.79 in 7.0 mi South 9.2 mph 16.1 mph 0.04 in Rain Light Rain
6:15 AM 37.4 °F 30.8 °F 37.4 °F 100% 29.79 in 7.0 mi South 9.2 mph - 0.01 in Rain Light Rain
6:35 AM 37.4 °F 30.8 °F 37.4 °F 100% 29.78 in 5.0 mi South 9.2 mph - 0.02 in Rain Light Rain
6:55 AM 37.4 °F 30.8 °F 37.4 °F 100% 29.77 in 3.0 mi South 9.2 mph - 0.02 in Rain Light Rain
7:15 AM 39.2 °F 33.6 °F 37.4 °F 93% 29.77 in 3.0 mi SSW 8.1 mph - N/A Rain Light Rain
7:35 AM 39.2 °F 33.0 °F 37.4 °F 93% 29.78 in 2.0 mi SW 9.2 mph - N/A   Overcast
7:55 AM 39.2 °F 33.0 °F 37.4 °F 93% 29.78 in 2.5 mi SW 9.2 mph - 0.01 in Rain Light Rain
8:15 AM 39.2 °F 33.6 °F 37.4 °F 93% 29.78 in 1.8 mi SW 8.1 mph - N/A Rain Light Rain
8:35 AM 39.2 °F 33.0 °F 37.4 °F 93% 29.78 in 1.8 mi WSW 9.2 mph - N/A Rain Light Rain
8:55 AM 39.2 °F 32.5 °F 37.4 °F 93% 29.78 in 1.8 mi WSW 10.4 mph - N/A   Overcast
9:15 AM 39.2 °F 32.5 °F 37.4 °F 93% 29.78 in 4.0 mi West 10.4 mph - N/A   Overcast
9:35 AM 41.0 °F 34.7 °F 37.4 °F 87% 29.78 in 10.0 mi West 10.4 mph - N/A   Overcast
9:55 AM 41.0 °F 33.9 °F 37.4 °F 87% 29.79 in 10.0 mi WNW 12.7 mph 18.4 mph N/A   Overcast
10:15 AM 39.2 °F 32.0 °F 37.4 °F 93% 29.79 in 10.0 mi WNW 11.5 mph 16.1 mph N/A   Overcast
10:35 AM 41.0 °F 34.3 °F 35.6 °F 81% 29.80 in 10.0 mi WNW 11.5 mph 18.4 mph N/A   Overcast
10:55 AM 39.2 °F 31.6 °F 35.6 °F 87% 29.80 in 10.0 mi WNW 12.7 mph 21.9 mph N/A   Overcast
11:15 AM 39.2 °F 32.5 °F 33.8 °F 81% 29.80 in 10.0 mi WNW 10.4 mph - N/A   Overcast
11:35 AM 42.8 °F 36.2 °F 35.6 °F 76% 29.80 in 10.0 mi WNW 12.7 mph 17.3 mph N/A   Scattered Clouds
11:55 AM 41.0 °F 34.7 °F 35.6 °F 81% 29.79 in 10.0 mi WNW 10.4 mph 16.1 mph N/A   Mostly Cloudy
12:15 PM 41.0 °F 34.7 °F 35.6 °F 81% 29.79 in 10.0 mi WNW 10.4 mph 16.1 mph N/A   Overcast
12:35 PM 41.0 °F 35.8 °F 35.6 °F 81% 29.79 in 10.0 mi WNW 8.1 mph - N/A   Overcast
12:55 PM 42.8 °F 37.0 °F 35.6 °F 76% 29.79 in 10.0 mi WNW 10.4 mph - N/A   Overcast
1:15 PM 42.8 °F 36.2 °F 35.6 °F 76% 29.79 in 10.0 mi WNW 12.7 mph 16.1 mph N/A   Overcast
1:35 PM 42.8 °F 37.5 °F 35.6 °F 76% 29.79 in 10.0 mi WNW 9.2 mph - N/A   Overcast
1:55 PM 41.0 °F 34.3 °F 35.6 °F 81% 29.80 in 10.0 mi WNW 11.5 mph 17.3 mph N/A   Light Drizzle
2:15 PM 41.0 °F 37.1 °F 35.6 °F 81% 29.80 in 10.0 mi West 5.8 mph - N/A   Overcast
2:35 PM 39.2 °F 32.0 °F 35.6 °F 87% 29.81 in 5.0 mi WNW 11.5 mph 25.3 mph N/A Rain Light Rain
2:55 PM 39.2 °F 34.2 °F 35.6 °F 87% 29.81 in 10.0 mi WNW 6.9 mph - N/A   Overcast
3:15 PM 41.0 °F 33.5 °F 35.6 °F 81% 29.82 in 10.0 mi WNW 13.8 mph 19.6 mph N/A   Overcast
3:35 PM 39.2 °F 33.6 °F 35.6 °F 87% 29.83 in 7.0 mi WNW 8.1 mph - N/A   Overcast
3:55 PM 39.2 °F 35.0 °F 37.4 °F 93% 29.83 in 7.0 mi West 5.8 mph - N/A Rain Light Rain
4:15 PM 37.4 °F 33.8 °F 35.6 °F 93% 29.84 in 5.0 mi WNW 4.6 mph - 0.01 in Rain Light Rain
4:35 PM 37.4 °F - 35.6 °F 93% 29.84 in 10.0 mi Calm Calm - 0.01 in   Overcast
4:55 PM 37.4 °F 34.9 °F 37.4 °F 100% 29.85 in 10.0 mi West 3.5 mph - 0.01 in   Overcast
5:15 PM 37.4 °F 33.8 °F 37.4 °F 100% 29.85 in 10.0 mi WNW 4.6 mph - N/A   Overcast
5:35 PM 37.4 °F 30.8 °F 35.6 °F 93% 29.86 in 10.0 mi NW 9.2 mph - N/A Rain Light Rain
5:55 PM 37.4 °F 31.4 °F 35.6 °F 93% 29.87 in 10.0 mi NW 8.1 mph - N/A Rain Light Rain
6:15 PM 37.4 °F 33.8 °F 35.6 °F 93% 29.88 in 4.0 mi NW 4.6 mph - 0.01 in Rain Light Rain
6:35 PM 37.4 °F 33.8 °F 35.6 °F 93% 29.89 in 10.0 mi NW 4.6 mph - 0.01 in Rain Light Rain
6:55 PM 37.4 °F 31.4 °F 35.6 °F 93% 29.90 in 10.0 mi NW 8.1 mph - 0.01 in Rain Light Rain
7:15 PM 37.4 °F 32.1 °F 35.6 °F 93% 29.90 in 10.0 mi NNW 6.9 mph - N/A   Overcast
7:35 PM 37.4 °F 32.8 °F 33.8 °F 87% 29.91 in 10.0 mi NNW 5.8 mph - N/A   Overcast
7:55 PM 37.4 °F 32.8 °F 33.8 °F 87% 29.91 in 10.0 mi NW 5.8 mph - N/A   Overcast
8:15 PM 37.4 °F 32.8 °F 33.8 °F 87% 29.92 in 10.0 mi NNW 5.8 mph - N/A   Overcast
8:35 PM 37.4 °F 31.4 °F 33.8 °F 87% 29.93 in 10.0 mi NW 8.1 mph - N/A   Overcast
8:55 PM 37.4 °F 32.1 °F 33.8 °F 87% 29.93 in 10.0 mi NW 6.9 mph - N/A   Overcast
9:15 PM 37.4 °F 32.1 °F 33.8 °F 87% 29.94 in 10.0 mi NW 6.9 mph - N/A   Overcast
9:35 PM 37.4 °F 31.4 °F 33.8 °F 87% 29.94 in 10.0 mi NW 8.1 mph - N/A   Overcast
9:55 PM 37.4 °F 32.1 °F 33.8 °F 87% 29.95 in 10.0 mi NW 6.9 mph - N/A   Overcast
10:15 PM 37.4 °F 32.1 °F 33.8 °F 87% 29.95 in 10.0 mi NW 6.9 mph - N/A   Overcast
10:35 PM 37.4 °F 30.8 °F 33.8 °F 87% 29.96 in 10.0 mi NW 9.2 mph - N/A   Overcast
10:55 PM 37.4 °F 32.1 °F 33.8 °F 87% 29.96 in 10.0 mi NNW 6.9 mph - N/A   Overcast
11:15 PM 35.6 °F 30.7 °F 33.8 °F 93% 29.97 in 10.0 mi NW 5.8 mph - N/A   Overcast
11:35 PM 35.6 °F 31.7 °F 33.8 °F 93% 29.98 in 10.0 mi NW 4.6 mph - N/A   Overcast
11:55 PM 35.6 °F 30.7 °F 33.8 °F 93% 29.99 in 10.0 mi NW 5.8 mph - N/A   Overcast